Погода в точке

    39°02′52″N   77°28′22″W   America/New_York
В апреле 2022 года жителям России запретили посещать сайт meteo.paraplan.net по решению Генеральной прокуратуры. Аудитория сайта уменьшилась в 10 раз. Владельцы сайта не видят смысла в поддержке погодного сервера в таких условиях. Сайт будет закрыт в октябре.
темп.,
°C
ветер,
м/с
пор.,
м/с
влажн.,
%
обл.,
%
осадки,
мм/ч
давл.,
гПа
погр.,
м
4 октября, вт
вт423:00+10ссв31170100 0.2 1022618
02:00+10с41167100 0.2 1021676
05:00+10с51261100 0.0 1019853
08:00+10ссз5126380 0.0 1019833
11:00+11с61071100 0.0 1019949
14:00+10ссз61083100 0.2 1017878
17:00+10ссз61184100 0.3 1016901
20:00+10ссз51180100 0.4 1017683
5 октября, ср
ср523:00+9ссз51187100 0.3 1016586
02:00+10ссз51186100 0.6 1015530
05:00+11сз51078100 0.1 1015478
08:00+11сз51084100 0.3 1015438
11:00+13сз51073100 0.0 1016508
14:00+15ссз51066100 0.0 1016618
17:00+14ссз497439 0.0 1016414
20:00+13сз237155 0.0 101762
6 октября, чт
чт623:00+14сз116533 0.0 101715
02:00+11сз11755 0.0 101710
05:00+9зсз227956 0.0 101725
08:00+10зсз227686 0.0 101831
11:00+18зсз2351100 0.0 1018407
14:00+22зсз2343100 0.0 1016998
17:00+22ссз1350100 0.0 1015800
20:00+16юз115961 0.0 101611
7 октября, пт
пт723:00+14зсз22660 0.0 101621
02:00+12з22692 0.0 101615
05:00+11зюз22685 0.0 101620
08:00+12зюз22695 0.0 101631
11:00+20зюз23485 0.0 1015454
14:00+23сз574331 0.0 10141789
17:00+16ссз71070100 0.0 1017773
20:00+10ссз614704 0.1 1021742
8 октября, сб
сб823:00+9ссз512630 0.0 1022808
02:00+5зсз12755 0.0 102339
05:00+4з22754 0.0 102433
08:00+5з27770 0.0 1026232
11:00+12сз57455 0.0 10261405
14:00+15сз46382 0.0 10241684
17:00+16сз37380 0.0 10221776
20:00+9зсз22560 0.0 102315